Theta_e
297 299 300 297 297 298 295 296 291 296 294 298 301 302 306 309 312 311 310 309 308 306 307 308 307 307 307 306 305 304 304 303 302 303 303 303 302 303 304 304 304 302 302 300
294 298 298 296 298 298 299 298 297 298 294 300 301 306 308 310 312 312 311 310 308 307 307 307 307 307 307 306 306 305 303 303 304 304 304 303 303 303 303 304 303 302 302 301
288 297 297 291 296 298 299 301 300 294 298 301 301 304 307 311 313 313 313 310 308 307 308 308 308 308 306 306 306 304 303 304 305 304 304 304 303 303 303 303 302 301 301 301
287 292 282 294 302 304 302 302 302 303 304 304 304 305 308 313 314 314 315 311 309 308 309 309 309 308 308 307 305 305 303 304 305 305 304 304 302 302 302 303 302 302 302 302
285 285 291 296 300 303 300 299 303 303 306 306 304 305 305 314 316 317 316 313 310 310 309 309 308 308 307 306 306 304 303 304 305 305 304 302 301 301 301 301 301 302 302 303
290 283 283 294 305 310 307 295 304 306 306 306 306 297 302 308 315 314 312 311 309 309 309 307 307 308 306 305 304 304 304 305 306 305 303 301 301 300 301 301 302 302 303 303
289 285 291 301 307 310 293 295 305 307 307 307 304 302 308 309 310 311 309 309 309 308 306 306 307 307 305 304 303 306 307 306 306 305 303 302 300 300 301 301 301 301 301 303
289 286 285 306 304 299 302 305 307 308 309 309 310 309 309 307 307 306 305 306 307 305 304 305 306 307 304 304 306 307 306 306 304 303 302 301 300 301 301 301 300 301 301 302
290 289 299 304 304 307 308 306 308 308 310 311 311 311 309 307 305 306 305 305 306 304 303 304 306 306 304 303 304 305 304 302 301 301 301 301 300 301 300 300 300 301 301 301
291 295 298 299 307 308 307 309 311 312 312 314 313 311 308 308 306 305 305 304 304 304 302 301 304 305 305 304 305 304 301 299 299 299 299 301 301 302 301 301 301 301 301 300
289 293 297 301 298 301 303 307 311 313 314 314 313 310 307 306 306 305 304 305 305 304 303 302 304 303 304 304 304 301 299 299 299 300 301 302 302 302 302 303 300 300 300 300
284 292 291 293 297 299 297 299 306 310 312 314 311 308 308 307 306 306 304 305 304 304 303 303 303 303 303 304 302 300 299 300 300 301 301 302 302 302 296 294 292 291 292 296
288 292 293 294 296 297 297 299 303 312 314 312 309 309 308 305 305 305 305 304 304 304 304 303 303 302 304 304 302 300 299 300 300 300 302 302 302 300 300 297 293 291 291 292
293 293 291 293 291 295 296 298 302 313 316 312 310 309 307 305 304 304 304 304 304 303 303 303 303 303 305 304 303 301 301 298 302 302 301 299 300 301 300 297 296 296 293 292
293 294 293 293 294 296 299 302 310 312 313 310 310 308 306 305 304 303 303 304 304 303 302 303 303 303 305 305 303 302 302 303 302 301 300 300 300 300 299 296 295 295 296 294
293 293 293 292 294 298 304 307 309 312 314 310 308 307 307 306 304 303 303 303 302 301 301 303 303 304 306 305 303 303 302 297 297 300 299 299 298 297 296 295 295 295 295 295
289 289 291 293 295 295 297 301 310 312 312 309 308 307 306 304 303 302 302 303 302 301 302 303 303 306 306 304 303 302 302 303 297 302 302 299 298 298 297 296 295 295 294 292
294 294 294 294 294 295 297 304 312 313 311 310 307 307 305 304 302 301 301 301 301 301 302 303 305 306 306 304 303 303 303 302 302 303 299 296 297 297 297 296 295 294 294 293
294 294 295 295 296 297 301 311 314 312 310 309 307 306 306 304 303 301 302 301 300 300 301 304 300 304 304 301 302 302 303 303 303 300 296 293 296 296 296 295 295 295 294 294
299 295 296 296 298 299 305 313 313 311 310 309 307 305 304 303 303 302 302 301 301 302 303 303 304 304 303 300 297 302 302 302 299 296 296 295 295 295 295 292 295 294 294 293
300 301 302 298 297 303 311 313 313 310 309 307 306 305 303 303 303 302 300 300 301 302 304 300 303 302 302 299 299 301 299 297 296 295 295 294 294 294 295 294 294 294 293 293
302 301 299 299 305 310 313 313 313 310 307 307 305 304 304 303 303 302 303 302 300 295 301 303 303 296 299 293 299 298 297 296 296 295 294 294 294 294 293 294 293 293 293 292
302 303 305 309 310 312 314 313 312 308 307 306 305 304 304 303 304 301 300 300 300 297 303 303 292 289 288 298 297 297 297 296 295 294 293 293 293 293 293 293 293 292 292 291
302 307 311 313 313 312 309 310 311 309 308 307 306 306 304 302 301 303 301 295 291 297 300 295 291 287 290 297 296 296 295 295 293 292 292 289 293 293 293 292 292 292 290 288
303 311 311 311 311 311 310 309 308 307 306 305 305 306 306 306 304 301 301 298 292 297 297 286 287 288 296 296 296 295 293 293 292 293 293 293 293 292 292 292 290 289 287 286
308 308 310 312 311 312 310 308 305 306 304 303 303 304 303 303 301 301 300 297 299 293 295 293 296 296 296 295 295 294 293 293 293 293 293 293 293 292 290 289 287 286 285 284
308 305 310 310 311 310 309 307 306 304 304 304 302 303 302 301 299 299 296 298 296 296 296 295 295 294 295 295 294 293 293 293 292 293 293 293 292 290 288 287 285 284 283 283
Wind_Speed
5 6 5 6 11 8 2 7 8 21 9 11 14 15 16 9 10 12 14 17 18 17 16 15 15 14 13 11 11 9 8 7 6 5 4 3 3 3 4 5 4 3 3 3
6 10 10 14 14 11 5 5 9 15 11 9 5 6 6 12 14 15 17 18 18 17 16 17 17 15 14 13 12 11 9 9 6 5 4 5 4 4 3 4 4 3 4 4
6 3 5 9 11 15 5 5 4 10 11 8 7 9 13 14 16 19 19 19 20 21 20 16 17 17 16 13 11 10 9 7 7 5 5 5 4 4 3 3 3 4 4 4
5 1 8 6 4 5 5 2 8 11 14 17 8 14 7 8 17 15 16 17 16 15 15 14 13 14 14 12 12 11 8 8 6 6 5 4 5 4 3 2 3 3 4 5
4 5 8 11 5 1 2 6 5 8 13 11 9 6 2 8 8 14 18 16 14 14 15 15 16 15 15 14 13 11 9 8 7 7 6 5 5 5 3 2 2 4 3 5
3 4 6 3 1 2 3 10 6 3 9 9 11 4 8 1 9 9 10 13 15 15 15 16 15 16 16 14 13 11 9 8 7 6 6 6 5 4 3 2 3 2 4 4
8 5 7 5 1 3 4 5 6 2 8 6 5 5 15 7 3 7 9 13 15 17 15 15 16 16 14 14 13 11 9 7 6 6 6 5 4 3 2 2 2 3 5 6
4 4 8 3 4 2 4 6 7 8 6 8 9 11 6 4 2 13 14 15 15 14 13 14 15 15 14 13 10 10 9 7 6 6 5 5 5 2 1 2 3 4 5 8
6 6 3 2 5 5 5 11 11 7 13 12 13 6 5 3 3 10 13 13 12 15 14 11 12 13 14 9 11 10 8 6 5 4 4 4 4 3 2 2 3 5 4 6
4 1 5 7 4 2 9 10 12 12 11 13 15 7 6 5 6 7 11 12 13 16 14 11 11 11 11 11 10 10 8 6 5 5 5 3 1 1 2 3 4 5 5 4
9 12 9 4 14 11 17 16 15 13 9 14 13 6 9 8 10 8 10 10 12 14 14 13 11 10 10 11 11 9 7 6 5 3 3 1 2 3 3 3 3 5 2 1
10 4 5 18 13 17 19 20 19 15 14 11 7 6 7 10 10 10 14 11 12 13 15 12 12 10 9 10 10 10 7 5 4 3 2 1 1 2 3 3 5 5 5 3
14 6 12 15 17 18 13 15 19 16 12 9 4 7 10 11 9 12 14 14 14 16 14 13 12 11 9 9 10 9 8 5 3 4 2 2 2 1 1 2 8 14 11 8
15 16 23 21 15 18 18 20 18 14 6 3 4 6 9 9 13 12 15 13 14 15 13 12 12 11 9 9 8 8 6 8 4 3 2 2 2 1 2 3 3 3 8 7
20 19 21 18 15 19 17 14 13 12 7 6 6 9 11 14 12 11 13 12 14 14 11 11 12 9 8 9 9 7 5 3 3 2 2 3 1 1 4 5 5 5 4 6
16 14 13 11 16 16 11 13 13 7 7 9 10 11 11 10 12 13 13 14 16 11 11 11 11 9 8 8 8 6 5 7 4 2 1 1 2 5 6 5 6 5 4 3
17 17 14 10 10 11 13 14 12 7 6 8 11 12 13 13 12 11 11 10 12 11 10 11 11 9 8 8 7 5 4 4 4 1 2 2 4 5 5 6 6 5 4 3
20 20 18 11 14 14 15 15 6 8 8 8 11 13 13 13 12 12 11 11 11 9 9 9 10 9 8 7 7 5 4 3 2 2 3 4 5 5 6 7 6 6 4 3
13 16 17 13 13 12 11 9 3 5 11 10 12 13 10 11 12 12 11 11 10 11 7 9 12 10 8 7 7 4 3 3 2 3 4 6 6 6 6 6 6 6 4 4
9 10 14 14 14 11 9 5 5 6 6 10 11 12 13 11 13 12 10 9 8 7 9 9 8 7 8 8 8 4 4 4 5 6 6 6 7 7 6 6 7 5 4 4
14 11 13 13 12 10 12 11 10 9 7 10 12 11 13 12 13 12 11 8 5 10 10 11 7 6 6 7 6 4 4 6 7 7 7 7 8 7 6 6 5 5 4 4
12 11 10 11 9 9 10 11 12 9 11 11 11 13 15 12 11 9 5 9 5 11 7 6 6 8 6 9 4 5 6 7 6 6 7 7 7 7 6 6 5 4 4 4
11 10 8 11 11 10 7 11 11 13 13 13 13 13 12 9 10 10 9 4 6 7 6 6 9 9 7 5 6 7 7 7 7 7 6 7 7 7 6 6 5 4 4 4
8 6 8 10 10 8 9 5 15 12 11 13 14 14 15 10 6 5 8 9 14 11 9 8 8 9 7 6 6 7 7 8 7 7 7 7 7 7 6 6 5 4 5 4
7 7 9 11 11 8 8 10 12 13 14 13 13 11 11 7 8 6 9 7 13 11 8 7 10 8 7 7 7 8 8 7 7 8 7 7 7 7 6 5 5 5 4 4
4 5 7 8 6 8 9 9 9 9 11 11 9 9 8 9 9 9 8 9 9 10 8 7 6 7 8 8 8 9 8 8 8 8 8 8 8 7 6 6 5 5 4 4
6 8 9 8 4 10 11 10 11 10 10 12 11 8 10 9 10 10 10 9 8 7 7 6 6 8 9 9 9 8 7 7 8 9 8 7 7 6 6 5 5 4 4 4
Wind_Direction
248 249 230 235 278 292 238 259 224 270 245 245 215 198 198 176 152 160 169 174 178 176 175 171 168 168 166 171 166 161 166 170 188 195 192 197 217 243 197 193 214 233 211 235
271 272 251 266 271 252 207 309 271 250 259 238 129 90 150 176 170 181 183 183 179 176 173 174 171 168 163 170 166 157 166 183 176 181 187 204 205 194 207 215 196 198 225 241
266 305 325 284 250 231 228 170 247 253 247 161 189 188 197 185 188 191 186 181 180 179 177 175 171 165 167 158 156 160 167 174 179 177 190 205 199 188 195 182 178 221 243 253
261 347 255 262 317 308 258 138 55 326 319 302 229 199 170 205 190 188 180 181 178 173 169 164 162 158 155 155 154 161 168 174 173 176 190 195 186 200 181 197 202 231 255 259
206 207 293 306 318 302 214 289 100 311 315 325 320 348 311 200 194 196 183 177 171 161 156 155 156 153 148 158 153 157 169 173 175 175 179 177 192 196 185 207 220 240 253 284
178 212 234 255 284 98 53 281 120 237 305 316 326 153 242 242 159 161 148 151 153 149 146 145 153 149 151 155 154 164 169 178 172 174 176 183 193 188 193 200 236 270 292 268
230 237 285 245 304 275 178 294 26 273 278 297 314 253 296 308 107 117 127 137 140 141 149 149 147 148 150 150 166 166 160 155 160 172 185 183 165 184 177 234 290 299 290 286
189 207 258 351 18 278 286 309 292 293 276 259 265 282 291 354 132 122 124 132 139 134 140 146 149 146 147 158 156 146 148 155 171 179 168 158 173 179 206 250 288 287 286 294
196 222 247 266 228 277 286 287 293 260 279 294 297 269 217 169 154 130 139 138 139 134 132 139 144 148 143 154 140 136 140 161 169 160 155 152 179 211 251 243 266 280 276 293
351 293 272 293 294 346 328 319 297 280 279 299 294 270 186 160 139 135 137 138 136 130 135 132 135 140 139 143 136 138 143 153 153 157 162 167 198 210 248 269 275 270 283 296
285 295 298 215 352 341 329 320 303 299 292 293 287 235 164 160 147 146 134 138 138 138 141 139 132 121 138 133 136 138 144 148 147 150 145 203 257 245 251 250 259 288 289 291
260 268 301 295 321 315 314 308 308 303 296 295 233 179 158 159 147 150 139 134 129 130 129 131 124 129 126 132 137 134 138 142 157 140 169 208 269 318 40 57 19 10 232 195
261 276 284 289 295 299 290 300 301 296 279 278 201 163 158 145 143 141 132 129 137 136 130 129 130 123 131 134 134 143 142 149 140 144 193 243 243 244 98 51 76 49 44 90
268 279 285 288 284 294 291 289 290 280 262 213 165 139 143 136 136 143 131 132 132 124 127 130 123 130 138 134 137 139 138 152 149 150 169 203 234 217 171 150 91 48 33 57
252 254 261 275 288 285 282 287 275 280 199 151 166 145 141 143 140 136 118 131 118 119 119 122 128 133 139 141 136 131 133 136 123 148 200 232 272 113 129 120 112 113 99 70
251 247 256 250 269 272 286 294 279 281 202 170 162 145 149 129 128 123 131 131 128 136 135 136 132 142 138 132 128 127 114 131 144 176 211 166 128 121 117 117 127 119 113 87
250 257 255 246 248 278 287 296 275 195 197 179 141 129 124 123 118 128 122 111 118 134 141 137 135 139 135 135 133 119 128 142 149 171 222 157 148 128 119 120 122 116 91 54
236 240 250 247 265 277 288 295 265 186 172 132 137 130 131 136 144 127 116 115 112 116 125 132 135 136 138 139 127 122 129 155 177 170 139 145 128 126 124 121 119 112 100 69
242 229 239 243 248 256 269 267 131 116 123 144 143 143 139 132 128 123 125 122 135 133 149 137 137 131 130 132 127 130 152 163 120 118 119 120 110 114 117 118 116 109 100 83
282 238 241 240 243 234 246 191 119 96 126 137 132 126 125 127 124 123 128 143 139 138 137 138 134 132 128 140 133 159 152 139 142 133 122 114 116 121 118 113 118 108 95 76
279 270 252 231 233 227 211 187 151 141 155 137 134 137 129 128 131 137 135 130 141 138 142 139 134 131 141 145 156 164 141 132 137 133 126 122 120 119 124 122 114 107 94 84
283 275 237 212 192 187 193 163 161 149 143 138 132 132 132 133 133 112 110 145 136 137 141 132 134 132 140 143 140 135 124 119 121 115 111 116 119 122 123 122 115 101 90 83
281 262 204 172 161 171 174 161 146 152 159 147 142 142 135 141 142 137 136 122 127 131 130 129 121 126 136 117 114 121 120 116 109 108 111 111 116 120 122 119 107 101 93 76
287 204 155 142 137 136 144 180 162 153 147 141 136 138 136 135 100 97 106 112 123 128 118 121 124 127 111 114 110 110 104 107 107 108 105 98 110 113 112 110 99 95 86 69
269 162 140 155 152 170 143 122 119 127 123 120 125 126 122 121 123 127 119 117 115 106 114 115 123 126 121 120 120 115 111 112 120 118 114 116 115 110 105 99 95 89 75 56
183 137 131 136 134 137 129 123 123 126 126 117 112 119 109 104 107 111 116 119 110 115 119 134 132 121 120 117 112 107 109 116 114 109 115 115 113 109 105 101 90 74 63 53
120 115 110 105 103 134 124 127 131 127 127 130 121 115 110 113 110 114 118 113 110 114 115 113 115 110 112 110 107 108 108 110 110 113 116 115 111 108 102 96 87 78 68 54